SCP
0 0 0 0 0 0 0 0 0 0 0 0 0 0 0 0 0 0 0 0 0 0 0 0 0 0 0 0 0 0 0 0 0 0 0 0 0 0 0 0 0 0 0 0
0 0 0 0 0 0 0 0 0 0 0 0 0 0 0 0 0 0 0 0 0 0 0 0 0 0 0 0 0 0 0 0 0 0 0 0 0 0 0 0 0 0 0 0
0 0 0 0 0 0 0 0 0 0 0 0 0 0 0 0 0 0 0 0 0 0 0 0 0 0 0 0 0 0 0 0 0 0 0 0 0 0 0 0 0 0 0 0
0 0 0 0 0 0 0 0 0 0 0 0 0 0 0 0 0 0 0 0 0 0 0 0 0 0 0 0 0 0 0 0 0 0 0 0 0 0 0 0 0 0 0 0
0 0 0 0 0 0 0 0 0 0 0 0 0 0 0 0 0 0 0 0 0 0 0 0 0 0 0 0 0 0 0 0 0 0 0 0 0 0 0 0 0 0 0 0
0 0 0 0 0 0 0 0 0 0 0 0 0 0 0 0 0 0 0 0 0 0 0 0 0 0 0 0 0 0 0 0 0 0 0 0 0 0 0 0 0 0 0 0
0 0 0 0 0 0 0 0 0 0 0 0 0 0 0 0 0 0 0 0 0 0 0 0 0 0 0 0 0 0 0 0 0 1 0 0 0 1 0 0 0 0 0 0
0 0 0 0 0 0 0 0 0 0 0 0 0 0 0 0 0 0 0 0 0 0 0 0 0 0 0 0 0 0 0 0 1 1 1 1 1 1 1 1 0 0 0 0
0 0 0 0 0 0 0 0 0 0 0 0 0 0 0 0 0 0 0 0 0 0 0 0 0 0 0 0 0 0 0 0 1 1 1 1 1 1 1 1 0 0 0 0
0 0 0 0 0 0 0 0 0 0 0 0 0 0 0 0 0 0 0 0 0 0 0 0 0 0 0 0 0 0 0 0 0 1 1 1 1 1 1 1 1 0 0 0
0 0 0 0 0 0 0 0 0 0 0 0 0 0 0 0 0 0 0 0 0 0 0 0 0 0 0 0 0 0 0 0 0 0 0 1 1 1 1 1 0 0 0 0
0 0 0 0 0 0 0 0 0 0 0 0 0 0 0 0 0 0 0 0 0 0 0 0 0 0 0 0 0 0 0 0 0 0 0 0 0 1 0 0 0 0 0 0
0 0 0 0 0 0 0 0 0 0 0 0 0 0 0 0 0 0 0 0 0 0 0 0 0 0 0 0 0 0 0 0 0 0 0 0 0 0 0 0 0 0 0 0
0 0 0 0 0 0 0 0 0 0 0 0 0 0 0 0 0 0 0 0 0 0 0 0 0 0 0 0 0 0 0 0 0 0 0 0 0 0 0 0 0 0 0 0
0 0 0 0 0 0 0 0 0 0 0 0 0 0 0 0 0 0 0 0 0 0 0 0 0 0 0 0 0 0 0 0 0 0 0 0 0 0 0 0 0 0 0 0
0 0 0 0 0 0 0 0 0 0 0 0 0 0 0 0 0 0 0 0 0 0 0 0 0 0 0 0 0 0 0 0 0 0 0 0 0 0 0 0 0 0 0 0
0 0 0 0 0 0 0 0 0 0 0 0 0 0 0 0 0 0 0 0 0 0 0 0 0 0 0 0 0 0 0 0 0 0 0 0 0 0 0 0 0 0 0 0
0 0 0 0 0 0 0 0 0 0 0 0 0 0 0 0 0 0 0 0 0 0 0 0 0 0 0 0 0 0 0 0 0 0 0 0 0 0 0 0 0 0 0 0
0 0 0 0 0 0 0 0 0 0 0 0 0 0 0 0 0 0 0 0 0 0 0 0 0 0 0 0 0 0 0 0 0 0 0 0 0 0 0 0 0 0 0 0
0 0 0 0 0 0 0 0 0 0 0 0 0 0 0 0 0 0 0 0 0 0 0 0 0 0 0 0 0 0 0 0 0 0 0 0 0 0 0 0 0 0 0 0
0 0 0 0 0 0 0 0 0 0 0 0 0 0 0 0 0 0 0 0 0 0 0 0 0 0 0 0 0 0 0 0 0 0 0 0 0 0 0 0 0 0 0 0
0 0 0 0 0 0 0 0 0 0 0 0 0 0 0 0 0 0 0 0 0 0 0 0 0 0 0 0 0 0 0 0 0 0 0 0 0 0 0 0 0 0 0 0
0 0 0 0 0 0 0 0 0 0 0 0 0 0 0 0 0 0 0 0 0 0 0 0 0 0 0 0 0 0 0 0 0 0 0 0 0 0 0 0 0 0 0 0
0 0 0 0 0 0 0 0 0 0 0 0 0 0 0 0 0 0 0 0 0 0 0 0 0 0 0 0 0 0 0 0 0 0 0 0 0 0 0 0 0 0 0 0
0 0 0 0 0 0 0 0 0 0 0 0 0 0 0 0 0 0 0 0 0 0 0 0 0 0 0 0 0 0 0 0 0 0 0 0 0 0 0 0 0 0 0 0
0 0 0 0 0 0 0 0 0 0 0 0 0 0 0 0 0 0 0 0 0 0 0 0 0 0 0 0 0 0 0 0 0 0 0 0 0 0 0 0 0 0 0 0
Wind_Speed
11 11 17 21 20 11 12 14 15 11 6 9 14 17 17 13 11 13 13 13 14 16 14 14 16 16 16 16 16 17 16 16 13 10 9 8 9 8 8 8 10 11 10 10
11 20 21 16 15 10 12 14 14 7 4 7 11 17 17 17 15 16 16 15 16 15 13 14 16 17 18 18 18 18 18 17 16 12 11 8 8 8 9 8 10 11 11 11
22 15 17 16 16 16 14 15 13 6 3 4 6 15 19 18 16 15 15 16 16 15 16 16 17 18 19 19 20 17 19 18 18 16 11 8 7 6 7 9 9 11 12 12
20 11 19 20 20 18 16 11 8 6 5 6 6 11 14 16 18 18 17 17 17 17 17 16 17 18 20 20 19 19 19 19 19 18 14 15 12 12 12 10 10 11 13 13
16 17 23 24 22 17 8 9 8 5 5 6 8 10 12 10 17 19 19 19 19 18 18 18 18 19 20 19 18 18 19 20 20 19 19 18 15 13 10 10 12 12 11 12
8 9 15 14 15 14 12 9 6 2 4 11 15 14 14 12 17 15 16 18 18 18 17 17 16 15 16 16 16 17 19 20 20 20 20 20 19 17 14 13 11 10 9 9
10 9 7 9 16 14 14 12 7 7 9 11 7 13 16 10 12 15 16 16 16 15 15 16 16 16 16 17 18 18 19 21 21 21 21 21 21 20 19 15 13 12 9 9
20 17 17 14 16 17 20 18 12 10 10 7 6 15 13 7 9 11 13 12 11 12 13 13 14 14 15 16 17 18 20 20 20 21 21 20 20 15 13 16 13 13 10 10
21 16 13 11 8 17 18 17 8 3 2 4 9 10 11 8 11 13 14 13 14 13 12 12 12 12 13 14 15 17 18 19 19 20 20 19 19 17 15 15 14 11 10 8
12 12 13 9 7 8 13 13 8 8 8 10 10 11 11 6 13 15 15 16 14 11 10 10 9 10 10 10 11 13 15 17 17 18 17 14 17 17 15 14 14 12 12 10
10 12 13 13 17 19 14 15 11 10 8 8 9 10 6 11 11 12 13 12 10 9 9 8 7 7 8 8 9 11 12 13 14 15 15 15 14 14 14 12 13 13 12 12
8 9 11 14 6 14 13 17 17 13 10 9 9 11 3 7 7 7 8 7 7 6 6 6 6 6 7 8 8 9 10 11 12 12 12 13 12 12 13 12 12 12 12 12
11 12 13 8 5 11 15 17 20 12 6 8 10 14 3 5 6 7 8 7 6 5 5 5 5 6 7 8 8 8 8 9 9 9 10 11 11 11 12 11 11 11 12 11
9 8 12 19 15 17 18 18 20 15 10 14 21 23 10 9 9 8 7 7 6 6 6 6 6 7 7 7 8 8 8 7 8 8 9 10 10 10 9 9 10 11 11 12
9 8 9 8 10 19 18 21 23 24 23 20 25 28 25 16 12 9 7 6 7 7 8 8 8 8 8 8 8 8 8 7 7 8 8 8 7 6 7 8 9 9 9 10
11 9 7 4 10 16 15 22 26 28 30 29 27 29 19 13 12 13 12 9 10 11 10 9 9 9 10 10 10 9 9 8 7 8 7 6 6 7 7 8 8 9 9 9
13 10 10 8 7 7 14 25 29 27 28 28 32 31 10 10 14 16 14 13 14 14 11 10 11 11 10 10 10 11 9 8 7 7 6 6 7 7 8 8 9 10 10 10
15 10 6 8 9 14 17 15 21 26 28 28 25 17 14 16 15 13 13 14 14 13 12 11 10 10 9 9 9 9 9 9 8 8 7 7 8 8 8 8 9 9 8 10
15 12 7 8 12 14 11 11 21 23 26 26 27 22 13 6 5 12 13 13 14 12 10 8 8 7 7 9 9 9 9 9 9 9 9 9 9 9 9 9 9 8 9 9
10 10 9 9 13 18 15 12 12 12 21 18 21 20 14 9 12 15 9 9 10 8 6 5 4 5 7 8 9 10 10 10 11 10 9 8 8 9 10 10 9 7 8 8
13 9 13 12 12 13 5 9 17 17 15 7 13 16 15 17 17 8 2 3 3 3 2 2 4 5 5 7 9 10 9 10 7 7 7 8 8 8 8 8 8 9 8 9
18 14 15 12 13 14 8 14 17 9 3 5 7 9 12 13 10 5 2 0 1 2 2 2 3 3 4 6 8 8 8 5 6 7 8 8 8 7 7 9 9 9 10 10
15 15 10 13 12 3 11 10 6 3 5 4 5 5 8 8 6 4 2 1 2 2 2 3 3 4 3 4 5 6 5 6 7 8 7 7 7 7 8 9 10 9 9 8
6 4 6 6 7 6 6 3 2 2 3 2 3 3 6 6 5 5 4 3 3 3 3 3 4 4 3 2 2 3 5 6 8 8 8 7 8 8 7 7 8 8 9 9
6 9 7 7 3 4 4 6 5 5 5 5 5 4 5 7 6 5 5 4 4 4 3 3 3 3 3 3 3 3 5 6 7 7 7 7 7 7 7 6 5 7 6 7
2 5 9 8 7 7 7 5 6 7 6 6 7 6 6 6 7 7 6 5 5 5 4 4 4 4 3 3 3 3 3 5 7 6 6 5 5 5 6 6 4 5 5 6
Wind_Direction
165 182 200 199 205 224 202 206 214 217 194 208 229 241 246 239 230 236 232 224 220 223 220 208 207 205 205 204 202 199 197 197 192 191 192 196 203 203 206 209 206 203 201 199
168 209 205 196 194 190 193 206 215 212 190 221 245 250 250 248 240 238 236 230 226 225 213 207 206 204 206 206 205 204 202 199 196 197 194 198 198 205 208 206 209 208 206 203
195 200 182 179 184 192 202 207 204 197 159 218 269 260 244 243 238 239 240 237 234 226 219 209 205 206 206 208 207 205 204 203 201 199 196 192 196 197 200 208 208 209 208 207
202 175 176 186 194 194 207 202 192 182 205 225 225 263 244 236 235 233 233 231 231 226 222 216 207 207 208 210 207 208 207 206 203 200 201 198 200 205 207 205 206 206 207 208
192 180 182 194 196 191 186 160 173 192 225 255 225 253 257 226 238 234 230 229 230 227 222 218 212 210 210 209 207 208 208 208 206 204 204 205 212 214 213 206 207 206 205 208
167 178 191 194 182 173 133 121 106 143 218 244 230 233 259 225 234 234 231 228 228 226 223 223 218 212 212 208 208 208 208 210 208 206 208 210 212 213 212 207 205 205 203 204
163 173 177 160 156 166 165 157 167 191 211 236 209 225 250 237 230 233 235 232 227 223 221 220 216 211 210 207 207 207 209 211 208 208 210 212 214 213 213 210 209 206 202 201
182 188 185 178 177 177 189 189 190 195 210 217 191 233 251 243 243 247 253 253 246 234 226 224 221 217 213 210 208 207 210 213 210 209 211 212 213 213 214 212 209 208 205 201
188 187 168 179 173 169 180 203 206 171 122 228 222 246 271 246 247 244 244 246 244 238 232 229 226 222 218 213 211 210 211 213 212 211 211 212 211 211 211 209 208 208 204 191
173 164 164 156 141 181 188 171 164 191 191 227 241 241 243 211 223 230 235 238 241 239 238 234 228 222 221 219 215 214 216 216 214 212 211 211 211 211 210 206 202 199 193 181
146 143 156 170 186 178 167 180 189 197 218 221 242 247 230 227 221 228 236 242 245 242 239 234 229 221 216 213 211 211 214 216 215 213 212 210 210 207 206 205 200 193 185 178
137 132 160 185 198 192 184 189 189 193 204 222 244 256 187 228 241 245 254 257 250 248 246 236 223 217 214 212 209 210 210 212 215 213 211 210 207 203 201 200 194 184 179 176
144 134 134 159 180 190 200 197 200 204 182 198 222 248 185 219 237 240 251 262 255 246 241 231 220 217 217 216 213 211 210 211 209 206 205 205 203 200 198 191 180 176 172 167
143 157 180 191 192 181 195 198 198 195 207 222 232 246 235 231 239 244 243 248 252 245 237 232 228 224 219 216 215 213 212 207 203 201 202 202 200 197 190 178 171 170 168 164
160 179 193 198 169 175 191 197 196 206 216 225 236 243 243 237 243 251 253 247 248 250 242 234 228 222 216 212 211 210 208 200 196 197 200 200 188 178 168 165 164 160 161 159
179 179 165 154 176 181 195 203 203 212 219 229 242 249 248 242 241 250 253 250 254 257 251 238 228 222 217 210 206 202 202 194 190 193 193 179 168 161 160 157 152 150 150 146
179 160 165 179 160 165 214 207 206 215 222 226 236 245 232 220 227 236 244 245 250 254 251 239 232 226 217 209 201 199 194 184 184 183 173 167 165 161 159 155 154 154 153 149
174 159 152 146 152 210 228 207 206 217 224 225 234 243 227 230 235 237 238 243 249 251 249 244 236 230 213 200 196 190 179 178 180 181 177 172 170 164 157 157 158 155 152 156
181 164 150 169 198 234 240 197 202 212 231 227 234 240 233 226 251 251 241 238 245 252 249 244 232 220 196 189 183 175 177 178 183 187 184 177 172 166 163 164 162 155 154 154
179 173 163 177 203 225 235 189 180 196 243 226 224 234 224 194 237 250 235 227 240 248 248 238 208 186 184 179 169 173 180 185 194 191 181 173 171 169 169 166 158 153 152 151
176 180 192 195 215 240 216 155 154 193 234 196 206 219 210 212 229 245 231 227 235 243 243 186 172 179 180 164 166 178 185 197 187 163 160 166 169 168 164 156 153 151 147 144
180 187 198 198 218 229 159 158 184 210 145 171 190 206 207 217 224 225 217 190 91 88 90 118 145 149 145 156 168 182 193 174 147 153 160 164 164 162 157 154 152 153 152 151
192 191 187 200 216 143 165 187 198 167 183 185 183 189 191 197 205 193 177 131 83 78 82 94 123 125 128 152 169 181 167 145 148 153 160 160 159 160 161 161 160 159 163 163
209 160 159 200 215 184 185 182 170 162 172 160 156 157 163 166 156 143 128 109 91 73 71 83 109 121 121 130 138 143 138 146 152 159 160 160 163 164 164 167 170 172 175 174
174 174 184 207 177 151 202 199 178 148 122 108 94 94 124 131 123 121 112 98 86 74 64 76 94 104 104 112 117 122 142 151 155 158 159 162 167 166 169 174 183 187 192 191
163 186 195 208 181 179 185 184 166 148 139 132 119 94 74 91 108 104 95 84 80 74 65 68 69 78 82 95 100 113 143 153 154 157 163 166 166 167 169 168 169 193 189 193